Location: Shepherdstown, WV
(39.4326°N, 77.8042°W)
Time: 08:57:36
(UTC-04:00)

Transit 2A - Pass Details

Date: 09 August 2021
Orbit: 595 x 964 km, 66.7° (Epoch: 18 September)

Event Time Altitude Azimuth Distance (km) Brightness Sun altitude
Exits shadow 05:06:31 14° 200° (SSW) 1,692 7.3 -13.2°
Maximum altitude 05:10:12 73° 116° (ESE) 653 5.7 -12.6°
Drops below altitude 10° 05:14:49 10° 33° (NNE) 2,077 9.4 -11.8°
Sets 05:17:14 0° 31° (NNE) 3,046 10.3 -11.4°
